PDT,Max TemperatureF,Mean TemperatureF,Min TemperatureF,Max Dew PointF,MeanDew PointF,Min DewpointF,Max Humidity, Mean Humidity, Min Humidity, Max Sea Level PressureIn, Mean Sea Level PressureIn, Min Sea Level PressureIn, Max VisibilityMiles, Mean VisibilityMiles, Min VisibilityMiles, Max Wind SpeedMPH, Mean Wind SpeedMPH, Max Gust SpeedMPH,PrecipitationIn, CloudCover, Events, WindDirDegrees
2013-7-1,105,88,70,50,42,35,38,24,9,30.11,29.91,29.83,10,10,10,47,6,55,T,5,Rain-Thunderstorm,224
2013-7-2,105,89,73,57,49,39,49,30,11,30.20,29.99,29.83,10,10,10,33,5,44,0.21,5,Rain-Thunderstorm,308
2013-7-3,100,82,64,54,51,44,63,40,16,30.07,29.94,29.81,10,10,10,26,6,33,0.00,4,,324
2013-7-4,97,83,69,53,51,47,53,36,19,29.92,29.80,29.69,10,10,10,28,5,36,0.00,3,,352
2013-7-5,97,82,67,52,39,22,53,30,7,29.73,29.68,29.62,10,10,10,25,7,33,0.00,1,,240
2013-7-6,96,78,60,39,34,25,39,24,9,29.75,29.71,29.67,10,10,10,28,8,33,0.00,0,,256
2013-7-7,97,80,63,39,34,28,40,25,10,29.92,29.78,29.72,10,10,10,24,6,36,0.00,3,,275
2013-7-8,96,79,62,40,35,24,40,24,8,29.97,29.89,29.83,10,10,10,23,7,30,0.00,1,,276
2013-7-9,94,78,62,40,34,28,43,28,12,30.05,30.00,29.95,10,10,10,25,7,30,0.00,2,,304
2013-7-10,95,78,60,37,35,31,42,27,12,30.03,29.95,29.88,10,10,10,28,8,37,0.00,2,,217
2013-7-11,91,78,65,40,32,24,31,21,10,29.86,29.82,29.77,10,10,10,25,10,32,0.00,4,,259
2013-7-12,92,73,54,32,28,23,38,24,9,29.92,29.86,29.80,10,10,10,26,7,32,0.00,0,,300
2013-7-13,93,75,57,33,28,16,40,24,7,29.98,29.92,29.85,10,10,10,21,7,28,0.00,1,,318
2013-7-14,95,77,59,38,35,31,42,27,11,30.01,29.92,29.83,10,10,10,18,6,25,0.00,1,,301
2013-7-15,95,80,64,42,38,30,37,25,12,29.89,29.79,29.68,10,10,10,25,7,38,0.00,2,,287
2013-7-16,92,79,66,44,36,26,42,26,10,29.93,29.80,29.74,10,10,10,26,9,35,0.00,1,,286
2013-7-17,95,75,55,36,29,21,40,24,7,30.08,30.00,29.93,10,10,10,21,5,24,0.00,0,,311
2013-7-18,100,81,61,39,33,23,37,22,7,30.05,29.95,29.84,10,10,10,16,4,22,0.00,0,,336
2013-7-19,104,85,65,41,36,26,40,23,6,29.95,29.86,29.75,10,10,10,18,5,25,0.00,1,,294
2013-7-20,105,86,67,47,38,28,39,23,7,29.91,29.78,29.70,10,10,9,43,4,60,0.00,2,,303
2013-7-21,105,87,69,47,40,32,44,27,9,29.91,29.76,29.69,10,10,10,20,7,26,0.00,1,,294
2013-7-22,101,85,69,49,42,31,37,23,9,29.96,29.83,29.75,10,10,10,26,8,31,0.00,5,,308
2013-7-23,86,79,71,49,42,35,38,29,19,29.98,29.93,29.87,10,10,10,20,6,25,T,6,,355
2013-7-24,95,80,65,51,48,44,52,35,17,29.98,29.92,29.86,10,10,10,18,6,24,0.00,3,,292
2013-7-25,98,83,67,59,51,45,51,34,16,30.17,30.00,29.90,10,10,8,26,4,33,0.23,4,Rain-Thunderstorm,307
2013-7-26,95,80,65,55,51,47,73,47,21,30.10,30.02,29.93,10,10,10,22,6,25,0.00,4,,299
2013-7-27,95,81,66,52,43,37,48,31,14,30.01,29.90,29.79,10,10,10,29,7,38,0.05,2,Rain,286
2013-7-28,93,78,63,46,40,36,42,28,14,29.92,29.79,29.70,10,10,10,25,8,32,0.00,2,,277
2013-7-29,92,76,60,42,35,26,48,29,10,29.95,29.86,29.80,10,10,10,23,6,31,0.00,2,,277
2013-7-30,92,76,59,40,35,29,42,27,11,30.07,30.01,29.95,10,10,10,22,7,29,0.00,1,,321
2013-7-31,92,80,67,41,36,31,37,25,13,30.07,29.95,29.86,10,10,10,25,9,37,0.00,2,,297